Total_Precipitation_Accumulation
0.54 0.62 0.72 0.87 1.04 1.19 1.33 1.53 1.90 2.10 2.38 2.48 2.41 2.31 2.33 2.33 2.35 2.36 2.29 2.15 2.04 1.92 1.77 1.60 1.49 1.46 1.37 1.25 1.10 1.01 1.00 0.99 0.96 0.98 0.92 0.84 0.77 0.69 0.61 0.61 0.71 0.81 0.82
0.63 0.67 0.81 0.97 1.04 1.09 1.23 1.40 1.69 1.93 2.09 2.14 2.14 2.11 2.08 2.12 2.17 2.25 2.34 2.37 2.25 2.08 1.96 1.79 1.65 1.55 1.53 1.45 1.31 1.18 1.10 1.03 0.96 1.01 1.03 0.92 0.83 0.70 0.56 0.50 0.54 0.62 0.72
0.57 0.59 0.72 0.97 1.09 1.08 1.17 1.31 1.53 1.74 1.97 2.19 2.33 2.37 2.47 2.40 2.25 2.17 2.21 2.29 2.26 2.12 1.97 1.87 1.82 1.76 1.65 1.55 1.48 1.43 1.33 1.23 1.11 1.01 1.22 1.22 0.93 0.66 0.51 0.48 0.48 0.47 0.51
0.55 0.56 0.65 0.88 1.06 1.07 1.22 1.38 1.56 1.79 1.94 2.19 2.32 2.20 2.18 2.24 2.05 1.95 1.94 2.10 2.27 2.22 2.07 1.98 1.95 1.86 1.75 1.61 1.54 1.57 1.56 1.54 1.47 1.29 1.16 1.09 0.97 0.96 0.71 0.48 0.45 0.43 0.41
0.55 0.55 0.60 0.80 1.02 1.12 1.24 1.45 1.60 1.82 1.99 2.11 2.19 2.13 2.03 1.97 2.05 2.14 2.12 2.06 2.12 2.26 2.20 2.05 2.00 1.91 1.79 1.71 1.64 1.56 1.59 1.61 1.59 1.51 1.35 1.21 1.02 0.93 1.00 0.72 0.52 0.52 0.48
0.57 0.62 0.65 0.79 0.96 1.10 1.24 1.40 1.65 1.82 2.04 2.15 2.13 1.98 1.87 1.83 1.90 2.00 2.16 2.21 2.17 2.22 2.26 2.14 2.03 1.92 1.77 1.69 1.71 1.65 1.60 1.60 1.60 1.56 1.48 1.41 1.31 1.08 1.07 0.96 0.66 0.59 0.57
0.63 0.65 0.68 0.76 0.84 0.99 1.16 1.31 1.51 1.80 2.01 2.15 2.10 1.90 1.77 1.74 1.77 1.83 1.94 2.03 2.11 2.16 2.18 2.17 2.02 1.88 1.77 1.65 1.65 1.68 1.66 1.62 1.65 1.67 1.60 1.49 1.36 1.23 1.23 1.26 1.03 0.81 0.67
0.68 0.68 0.66 0.74 0.82 0.94 1.10 1.27 1.41 1.67 1.92 2.07 2.07 1.96 1.75 1.68 1.73 1.80 1.83 1.86 1.80 1.82 1.97 2.13 2.18 1.98 1.78 1.70 1.67 1.65 1.61 1.63 1.66 1.61 1.60 1.58 1.45 1.38 1.40 1.47 1.53 1.38 0.96
0.71 0.75 0.73 0.78 0.83 0.93 1.07 1.25 1.39 1.57 1.82 2.03 2.05 2.02 1.86 1.73 1.70 1.76 1.79 1.87 1.83 1.75 1.80 1.96 2.11 2.19 2.10 1.92 1.79 1.73 1.64 1.64 1.68 1.68 1.69 1.71 1.60 1.51 1.45 1.48 1.67 1.96 1.67
0.69 0.75 0.77 0.81 0.87 0.98 1.10 1.24 1.38 1.50 1.68 1.89 2.00 2.00 2.02 1.86 1.79 1.80 1.80 1.78 1.85 1.85 1.80 1.81 1.87 1.95 2.03 2.03 1.97 1.88 1.73 1.68 1.64 1.65 1.72 1.76 1.76 1.74 1.67 1.61 1.60 1.78 1.98
0.71 0.80 0.84 0.84 0.88 1.03 1.14 1.21 1.31 1.48 1.64 1.73 1.81 1.90 2.04 1.94 1.87 1.86 1.82 1.75 1.75 1.86 1.88 1.86 1.92 1.93 1.91 1.92 1.97 1.95 1.89 1.88 1.82 1.76 1.76 1.74 1.75 1.85 1.85 1.80 1.75 1.70 1.82
0.70 0.73 0.79 0.83 0.83 0.95 1.13 1.23 1.29 1.34 1.54 1.69 1.74 1.81 1.96 2.02 1.93 1.90 1.85 1.72 1.64 1.70 1.81 1.87 1.92 2.01 2.05 2.01 2.03 1.99 1.94 2.00 1.97 1.84 1.78 1.74 1.75 1.82 1.86 1.95 1.90 1.76 1.68
0.69 0.71 0.72 0.76 0.82 0.88 1.02 1.15 1.24 1.27 1.38 1.61 1.64 1.73 1.85 1.92 1.91 1.87 1.88 1.82 1.75 1.77 1.81 1.91 1.99 2.06 2.13 2.20 2.25 2.24 2.20 2.21 2.18 2.08 2.01 1.86 1.86 1.92 1.87 1.91 1.95 1.86 1.76
0.67 0.68 0.71 0.75 0.81 0.88 0.96 1.03 1.11 1.23 1.34 1.56 1.68 1.67 1.72 1.77 1.82 1.85 1.82 1.89 1.94 1.99 2.03 2.04 2.06 2.12 2.22 2.36 2.47 2.53 2.50 2.41 2.36 2.32 2.27 2.16 2.06 2.06 2.05 2.05 1.98 1.92 1.94
0.68 0.68 0.73 0.76 0.80 0.90 0.98 0.97 1.03 1.12 1.27 1.46 1.60 1.64 1.66 1.78 1.89 1.95 1.99 1.95 2.05 2.12 2.07 2.09 2.13 2.10 2.28 2.62 2.77 2.66 2.51 2.36 2.25 2.18 2.17 2.22 2.35 2.37 2.39 2.43 2.27 2.13 2.21
0.69 0.71 0.73 0.77 0.82 0.88 0.95 0.94 0.94 1.04 1.18 1.35 1.45 1.52 1.65 1.77 1.94 2.01 2.10 2.11 2.11 2.17 2.16 2.09 2.10 2.07 2.15 2.66 2.85 2.42 2.07 2.01 2.04 2.00 1.89 1.89 2.13 2.22 2.33 2.47 2.45 2.45 2.52
0.60 0.66 0.75 0.80 0.82 0.85 0.88 0.92 0.92 0.94 1.04 1.22 1.33 1.41 1.58 1.67 1.77 1.84 1.90 1.96 1.93 1.93 2.00 2.03 1.94 1.88 2.01 2.43 2.54 2.23 1.75 1.63 1.70 1.72 1.69 1.66 1.71 1.95 1.89 2.08 2.20 2.25 2.41
0.56 0.59 0.70 0.77 0.75 0.78 0.85 0.87 0.88 0.89 0.98 1.10 1.21 1.25 1.41 1.56 1.60 1.65 1.70 1.73 1.69 1.73 1.85 1.85 1.71 1.61 1.70 2.10 2.23 2.03 1.60 1.53 1.57 1.59 1.58 1.57 1.57 1.74 1.98 2.05 1.96 1.85 1.93
0.56 0.59 0.67 0.71 0.71 0.76 0.81 0.81 0.82 0.82 0.90 1.01 1.08 1.11 1.20 1.40 1.44 1.51 1.59 1.58 1.61 1.63 1.65 1.64 1.56 1.47 1.51 1.86 2.11 1.96 1.50 1.55 1.54 1.52 1.58 1.57 1.52 1.89 2.14 2.04 1.95 1.82 1.77
0.57 0.61 0.66 0.64 0.67 0.73 0.74 0.73 0.75 0.78 0.86 0.92 1.00 1.02 1.06 1.19 1.24 1.29 1.38 1.41 1.43 1.51 1.55 1.55 1.49 1.43 1.38 1.66 2.04 2.05 1.56 1.56 1.53 1.50 1.56 1.75 1.71 1.92 2.01 1.87 1.94 1.99 1.75
0.62 0.62 0.63 0.66 0.69 0.74 0.75 0.75 0.74 0.76 0.81 0.84 0.89 0.94 1.00 1.09 1.12 1.16 1.22 1.29 1.35 1.41 1.46 1.49 1.44 1.35 1.36 1.48 1.81 2.19 1.86 1.66 1.56 1.52 1.54 1.59 1.82 1.85 1.90 1.89 1.84 2.04 1.87
0.63 0.62 0.65 0.69 0.70 0.71 0.71 0.69 0.75 0.75 0.77 0.82 0.88 0.93 0.97 1.01 1.03 1.08 1.15 1.17 1.28 1.42 1.42 1.40 1.40 1.37 1.35 1.40 1.60 1.93 2.07 1.93 1.67 1.56 1.39 1.42 1.69 1.74 1.84 1.81 1.88 1.99 1.90
0.61 0.62 0.66 0.70 0.69 0.70 0.68 0.68 0.73 0.74 0.75 0.80 0.86 0.93 0.98 1.00 1.05 1.08 1.15 1.21 1.30 1.44 1.44 1.36 1.34 1.34 1.30 1.38 1.63 1.65 1.73 1.88 1.73 1.64 1.69 1.60 1.64 1.63 1.59 1.68 1.80 1.77 1.67
0.57 0.56 0.61 0.67 0.69 0.70 0.70 0.70 0.72 0.75 0.77 0.81 0.82 0.87 0.98 1.05 1.05 1.09 1.14 1.18 1.25 1.41 1.48 1.43 1.39 1.31 1.26 1.36 1.60 1.56 1.51 1.66 1.73 1.77 1.78 1.74 1.69 1.64 1.58 1.60 1.57 1.51 1.58
0.57 0.55 0.58 0.65 0.70 0.70 0.71 0.73 0.78 0.82 0.84 0.81 0.81 0.84 0.94 1.01 1.05 1.09 1.15 1.20 1.21 1.43 1.61 1.52 1.51 1.50 1.49 1.55 1.80 1.79 1.70 1.72 1.76 1.83 1.85 1.75 1.69 1.68 1.59 1.49 1.44 1.48 1.58
0.57 0.56 0.56 0.63 0.68 0.71 0.73 0.78 0.85 0.89 0.89 0.87 0.87 0.88 0.95 0.98 1.01 1.05 1.13 1.23 1.25 1.33 1.34 1.39 1.48 1.45 1.57 1.65 1.63 1.69 1.73 1.76 1.83 1.90 1.86 1.65 1.52 1.50 1.46 1.45 1.43 1.40 1.42